Location: D�derode
(51.8092°N, 10.1065°E)
Time: 06:30:07
(UTC+00:00)

Cosmos 1943 - Pass Details

Date: 01 December 2020
Orbit: 832 x 851 km, 71.0° (Epoch: 23 January)

Event Time Altitude Azimuth Distance (km) Brightness Sun altitude
Rises 17:51:31 0° 203° (SSW) 3,383 6.7 -23.6°
Reaches altitude 10° 17:53:57 10° 202° (SSW) 2,455 5.9 -23.9°
Maximum altitude 17:59:34 77° 117° (ESE) 871 3.0 -24.8°
Enters shadow 18:00:31 62° 52° (NE) 953 3.1 -25.0°
